Weather History for Cecil Field, FL

Change the Weather History Date:

Wednesday, February 13, 2013

  Actual Average (KJAX) Record (KJAX)
Temperature  
Mean Temperature 65 °F 56 °F  
Max Temperature 73 °F 68 °F 85 °F (1959)
Min Temperature 57 °F 44 °F 10 °F (1899)
Degree Days  
Heating Degree Days 0 9  
Month to date heating degree days 134  
Since 1 July heating degree days 1010  
Cooling Degree Days 0 1  
Month to date cooling degree days 8  
Year to date cooling degree days 19  
Growing Degree Days 15 (Base 50)    
Moisture  
Dew Point 63 °F    
Average Humidity 84    
Maximum Humidity 100    
Minimum Humidity 52    
Precipitation  
Precipitation 0.06 in 0.10 in 1.86 in (1983)
Month to date precipitation 1.39  
Year to date precipitation 4.69  
Snow  
Snow 0.00 in 0.00 in 1.90 in (1899)
Month to date snowfall 0.0  
Since 1 July snowfall T  
Snow Depth -    
Sea Level Pressure  
Sea Level Pressure 29.87 in    
Wind  
Wind Speed 9 mph (SW)    
Max Wind Speed 17 mph    
Max Gust Speed 25 mph    
Visibility 8 miles    
Events Rain , Thunderstorm    
T = Trace of Precipitation, MM = Missing Value Source: NWS Daily Summary

Daily Weather History Graph

Daily Weather History Graph

Search for Another Location

Airport:

Trip Planner

Search our weather history database for the weather conditions in past years. The results will help you decide how hot, cold, wet, or windy it might be!

Date:

Astronomy

Feb. 13, 2013 Rise Set
Actual Time 7:09 AM EST 6:14 PM EST
Civil Twilight 6:44 AM EST 6:39 PM EST
Nautical Twilight 6:16 AM EST 7:07 PM EST
Astronomical Twilight 5:48 AM EST 7:35 PM EST
Moon 8:57 AM EST (2/13) 9:53 PM EST (2/13)
Length of Visible Light 11h 54m
Length of Day
11h 05m
Waxing Crescent, 13% of the Moon is Illuminated
Feb 13
Waxing Crescent
Feb 17
First Quarter
Feb 25
Full
Mar 4
Last Quarter
Mar 11
New

Hourly Weather History & Observations

Time (EST) Temp. Dew Point Humidity Pressure Visibility Wind Dir Wind Speed Gust Speed Precip Events Conditions
12:15 AM 68.0 °F 66.2 °F 94% 29.89 in 10.0 mi South 8.1 mph 17.3 mph N/A   Clear
12:35 AM 68.0 °F 66.2 °F 94% 29.89 in 10.0 mi SSW 10.4 mph - N/A   Clear
12:55 AM 68.0 °F 66.2 °F 94% 29.89 in 9.0 mi South 8.1 mph - N/A   Mostly Cloudy
1:15 AM 68.0 °F 66.2 °F 94% 29.88 in 9.0 mi South 9.2 mph 16.1 mph N/A   Mostly Cloudy
1:35 AM 69.8 °F 66.2 °F 88% 29.87 in 9.0 mi South 10.4 mph 16.1 mph N/A   Mostly Cloudy
1:55 AM 69.8 °F 66.2 °F 88% 29.86 in 9.0 mi South 9.2 mph - N/A   Mostly Cloudy
2:15 AM 69.8 °F 66.2 °F 88% 29.86 in 9.0 mi South 9.2 mph 17.3 mph N/A   Overcast
2:35 AM 69.8 °F 68.0 °F 94% 29.85 in 8.0 mi South 8.1 mph - N/A   Mostly Cloudy
2:55 AM 71.6 °F 68.0 °F 88% 29.84 in 9.0 mi South 9.2 mph - N/A   Mostly Cloudy
3:15 AM 71.6 °F 68.0 °F 88% 29.84 in 8.0 mi South 9.2 mph 17.3 mph N/A   Mostly Cloudy
3:35 AM 71.6 °F 68.0 °F 88% 29.84 in 7.0 mi South 8.1 mph - N/A   Mostly Cloudy
3:55 AM 71.6 °F 68.0 °F 88% 29.84 in 8.0 mi SSW 10.4 mph 19.6 mph N/A   Mostly Cloudy
4:15 AM 73.4 °F 68.0 °F 83% 29.83 in 7.0 mi SSW 12.7 mph 19.6 mph N/A   Mostly Cloudy
4:35 AM 71.6 °F 68.0 °F 88% 29.83 in 8.0 mi SSW 15.0 mph - N/A   Partly Cloudy
4:55 AM 71.6 °F 68.0 °F 88% 29.83 in 7.0 mi SSW 13.8 mph 21.9 mph N/A   Scattered Clouds
5:15 AM 73.4 °F 68.0 °F 83% 29.82 in 7.0 mi SSW 15.0 mph 23.0 mph N/A   Scattered Clouds
5:35 AM 73.4 °F 68.0 °F 83% 29.83 in 9.0 mi SSW 15.0 mph 19.6 mph N/A   Mostly Cloudy
5:55 AM 73.4 °F 68.0 °F 83% 29.83 in 9.0 mi SW 12.7 mph 20.7 mph N/A   Overcast
6:15 AM 73.4 °F 68.0 °F 83% 29.83 in 8.0 mi SSW 11.5 mph 19.6 mph N/A   Mostly Cloudy
6:35 AM 73.4 °F 68.0 °F 83% 29.82 in 8.0 mi SSW 13.8 mph 25.3 mph N/A   Scattered Clouds
6:50 AM 73.4 °F 68.0 °F 83% 29.83 in 7.0 mi SW 17.3 mph - N/A   Mostly Cloudy
9:20 AM 73.4 °F 69.8 °F 88% 29.87 in 2.5 mi WSW 11.5 mph - N/A Rain Light Rain
9:50 AM 71.6 °F 71.6 °F 100% 29.88 in 2.5 mi WSW 9.2 mph - N/A Rain Light Rain
10:05 AM 69.8 °F 69.8 °F 100% 29.88 in - WSW 9.2 mph - N/A Rain , Thunderstorm Light Thunderstorms and Rain
10:21 AM 69.8 °F 69.8 °F 100% 29.88 in 7.0 mi WSW 11.5 mph - N/A   Mostly Cloudy
10:50 AM 73.4 °F 71.6 °F 94% 29.88 in 7.0 mi SW 8.1 mph - N/A   Mostly Cloudy
12:50 PM 73.4 °F 71.6 °F 94% 29.85 in 3.0 mi WSW 11.5 mph 18.4 mph N/A Rain Light Rain
1:50 PM 71.6 °F 69.8 °F 94% 29.83 in 6.0 mi WSW 6.9 mph 17.3 mph N/A Rain Light Rain
2:50 PM 71.6 °F 68.0 °F 88% 29.82 in 10.0 mi SW 9.2 mph - N/A   Mostly Cloudy
3:50 PM 71.6 °F 66.2 °F 83% 29.82 in 10.0 mi SW 11.5 mph - N/A   Mostly Cloudy
4:50 PM 69.8 °F 64.4 °F 83% 29.84 in 10.0 mi WSW 11.5 mph - N/A   Mostly Cloudy
5:50 PM 69.8 °F 66.2 °F 88% 29.86 in 7.0 mi West 6.9 mph - N/A   Mostly Cloudy
6:50 PM 68.0 °F 62.6 °F 83% 29.88 in 7.0 mi WNW 10.4 mph - N/A   Mostly Cloudy
7:50 PM 66.2 °F 50.0 °F 56% 29.89 in 7.0 mi WNW 6.9 mph - N/A   Mostly Cloudy
8:15 PM 66.2 °F 50.0 °F 56% 29.91 in 10.0 mi West 3.5 mph - N/A   Partly Cloudy
8:35 PM 64.4 °F 50.0 °F 59% 29.92 in 10.0 mi WNW 5.8 mph - N/A   Mostly Cloudy
8:55 PM 66.2 °F 48.2 °F 52% 29.92 in 10.0 mi West 5.8 mph - N/A   Mostly Cloudy
9:15 PM 66.2 °F 48.2 °F 52% 29.93 in 10.0 mi SW 4.6 mph - N/A   Mostly Cloudy
9:35 PM 64.4 °F 48.2 °F 56% 29.93 in 10.0 mi WSW 3.5 mph - N/A   Mostly Cloudy
9:55 PM 62.6 °F 51.8 °F 68% 29.94 in 8.0 mi SW 5.8 mph - N/A Rain , Thunderstorm Light Rain
10:15 PM 57.2 °F 55.4 °F 94% 29.93 in 5.0 mi Calm Calm - 0.03 in Rain , Thunderstorm Light Thunderstorms and Rain
10:35 PM 59.0 °F 53.6 °F 82% 29.93 in 10.0 mi SSW 6.9 mph - 0.03 in   Mostly Cloudy
10:55 PM 59.0 °F 53.6 °F 82% 29.94 in 5.0 mi South 5.8 mph - 0.04 in Rain Light Rain
11:15 PM 57.2 °F 55.4 °F 94% 29.95 in 10.0 mi SSW 4.6 mph - N/A   Mostly Cloudy
11:35 PM 57.2 °F 55.4 °F 94% 29.94 in 5.0 mi SSW 4.6 mph - 0.01 in Rain Light Rain
11:55 PM 57.2 °F 55.4 °F 94% 29.94 in 5.0 mi SW 8.1 mph - 0.02 in Rain Light Rain